Preview of NWS' New Version of Forecast
This preview is not operational and should not be used for support decisions.
Latest weather observations around

Odessa, Odessa-Schlemeyer Field (KODO)

Using English Units (Switch to International System of Units)
Date/ Time (CDT) Wind (mph) Vis. (mi) Weather Sky Cond. Temp (°F) Rel. Humidity Wind Chill (°F) Heat Index (°F) Pressure Precip. (in)
Air Dwpt 6 hour Altimeter (inHg) Sea level (inHg) 1 hr 3 hr 6 hr
Max Min
Sep 23 02:29 NW 10 4 Light Rain and Fog/Mist BKN044 BKN055 OVC070 70 66     87%     30.12   0    
Sep 23 02:14   4 Thunderstorms and Rain and Fog/Mist BKN044 OVC055 71 67     87%   72 30.1   0    
Sep 23 02:02 NNW 8 8 Cloudy BKN046 OVC065 71 68     90%   72 30.11   0    
Sep 23 01:53 NNW 6 9 Thunderstorms and Rain BKN046 BKN055 OVC070 71 68     90%   72 30.1 29.96 0    
Sep 23 01:41 Calm 6 Thunderstorms and Rain BKN043 BKN055 OVC070 72 67     84%   73 30.1   0    
Sep 23 01:30 Calm 3 Light Rain and Fog/Mist BKN043 OVC055 71 67     87%   72 30.1   0    
Sep 23 01:11 W 7 1.75 Heavy Rain and Fog/Mist BKN045 OVC055 71 68     90%   72 30.1   0    
Sep 23 00:53 S 10 8 Light Rain BKN049 BKN070 OVC090 74 67     79%   75 30.09 29.96 0   0
Sep 22 23:53 SSE 13 10 Cloudy SCT055 BKN065 OVC110 76 66     71%   77 30.09 29.95      
Sep 22 22:53 Calm 10 Cloudy OVC085 78 69     74%   79 30.07 29.93      
Sep 22 21:53 SW 3 10 Cloudy OVC100 78 66     67%   79 30.07 29.93      
Sep 22 20:53 WSW 5 10 Cloudy FEW055 FEW070 OVC100 80 66     62%   82 30.05 29.92      
Sep 22 19:53 Calm 10 Clear   82 63     53%   83 30.03 29.89      
Sep 22 18:53 Calm 10 Partly Cloudy FEW075 SCT100 83 62     49%   84 30.02 29.88      
Sep 22 17:53 WSW 5 10 Clear CLR 85 59     42%   85 30.02 29.88      
Sep 22 16:53 S 8 10 Mostly Clear FEW075 85 62     46%   86 30.02 29.88      
Sep 22 15:53 S 5 10 Mostly Cloudy FEW046 SCT055 BKN080 84 62     48%   85 30.03 29.89      
Sep 22 14:53 WSW 8 10 Mostly Clear FEW041 83 63     51%   84 30.05 29.91      
Sep 22 13:53 W 10 10 Mostly Cloudy SCT031 BKN090 82 64     55%   84 30.07 29.93      
Sep 22 12:53 SW 9 10 Partly Cloudy FEW024 SCT110 79 66     65%   80 30.08 29.96      
Sep 22 11:53 SW 10 10 Partly Cloudy FEW015 SCT120 77 66     69%   78 30.09 29.96      
Sep 22 10:53 S 15 10 Mostly Clear FEW013 75 67     76%   76 30.09 29.96      
Sep 22 09:53 SSW 16 10 Partly Cloudy FEW012 SCT110 73 67     81%   74 30.08 29.96      
Sep 22 08:53 SW 11 10 Mostly Clear FEW120 70 66     87%     30.07 29.95      
Sep 22 07:53 SW 10 10 Cloudy OVC110 69 65     87%     30.06 29.94      
Sep 22 06:53 SW 11 10 Mostly Cloudy BKN110 69 65     87%     30.05 29.92     0
Sep 22 05:53 SW 10 10 Mostly Clear FEW120 69 65     87%     30.02 29.89      
Sep 22 04:53 SW 11 10 Mostly Cloudy BKN110 69 65     87%     30.01 29.88 0    
Sep 22 03:53 SSW 14 10 Light Rain BKN120 68 64     87%     30.02 29.89 0 0  
Sep 22 03:01 SSW 18 10 Mostly Cloudy SCT009 BKN120 68 65     90%     30.03        
Sep 22 02:53 SSW 15 10 Mostly Cloudy BKN009 BKN120 68 65     90%     30.03 29.9 0    
Sep 22 02:46 SSW 17 10 Cloudy BKN009 OVC120 68 66     93%     30.03   0    
Sep 22 02:31 SSW 18 10 Mostly Cloudy SCT009 BKN110 69 66     90%     30.03   0    
Sep 22 01:53 S 14 10 Light Rain SCT120 69 66     90%     30.02 29.9 0    
Sep 22 00:53 S 20 8 Light Rain FEW009 FEW120 69 66     90%     30.04 29.91 0   0
Sep 22 00:45 S 18 8 Light Rain FEW009 SCT120 69 67     93%     30.03   0    
Sep 21 23:53 S 13 7 Light Rain FEW100 SCT120 69 66     90%     30.03 29.9 0    
Sep 21 22:53 SSE 5 3 Rain and Fog/Mist BKN110 72 69     91%   73 30.04 29.91 0    
Sep 21 22:34 SW 8 3 Rain and Fog/Mist FEW030 BKN110 72 68     87%   73 30.05   0    
Sep 21 22:20 W 5 2.5 Rain and Fog/Mist FEW029 BKN100 BKN120 72 69     91%   73 30.05   0    
Sep 21 22:07 WNW 8 3 Light Rain and Fog/Mist FEW110 72 69     91%   73 30.04   0    
Sep 21 21:53 WSW 7 5 Light Rain and Fog/Mist FEW110 72 69     91%   73 30.03 29.91 0 0  
Sep 21 21:50 SW 8 4 Light Rain and Fog/Mist SCT110 72 70     94%   73 30.03   0    
Sep 21 20:53 S 11 4 Rain FEW045 BKN110 73 68     84%   74 30 29.87 0    
Sep 21 19:53 S 6 5 Light Rain BKN100 74 69     85%   75 29.99 29.87 0    
Sep 21 18:53 S 14 8 Light Rain FEW048 SCT070 OVC095 78 65     64%   79 29.98 29.85 0   0
Sep 21 17:53 S 17 9 Mostly Clear FEW034 FEW095 80 64     58%   82 29.97 29.83      
Sep 21 16:53 S 16 10 Partly Cloudy FEW032 FEW100 SCT120 80 64     58%   82 29.98 29.84      
Sep 21 15:53 S 17 10 Cloudy OVC100 78 65     64%   79 30.01 29.87 0 0  
Sep 21 14:53 S 14 10 Cloudy FEW033 FEW055 OVC100 79 64     60%   79 30.03 29.89 0    
Sep 21 13:53 SSE 11 10 Light Rain FEW049 BKN080 OVC110 76 67     74%   77 30.05 29.91 0    
Sep 21 12:53 SSE 9 10 Light Rain BKN110 76 66     71%   77 30.05 29.91 0   0
Sep 21 11:53 S 13 10 Clear CLR 76 65     69%   76 30.07 29.93 0    
Sep 21 10:53 SSW 17 9 Light Rain FEW075 OVC110 73 67     81%   74 30.08 29.94 0    
Sep 21 09:53 SSW 22 10 Mostly Cloudy and Windy BKN120 75 64     69%   75 30.07 29.92      
Sep 21 08:53 S 17 10 Mostly Cloudy BKN120 76 65     69%   76 30.05 29.9      
Sep 21 07:53 S 15 10 Mostly Cloudy BKN120 74 65     74%   74 30.02 29.88      
Sep 21 06:53 S 16 10 Clear CLR 75 65     71%   76 30.02 29.87      
Sep 21 05:53 S 15 10 Clear CLR 76 65     69%   76 30 29.85      
Sep 21 04:53 S 15 10 Clear CLR 76 62     62%   76 30 29.84      
Sep 21 03:53 SSE 10 10 Clear CLR 76 64     67%   76 29.99 29.83      
Sep 21 02:53 S 10 10 Clear CLR 77 65     66%   78 29.97 29.81      
Sep 21 01:53 S 16 10 Clear CLR 78 65     64%   79 29.98 29.82      
Sep 21 00:53 S 14 10 Mostly Clear FEW047 79 64     60%   79 29.98 29.83 0   0
Sep 20 23:53 S 15 10 Mostly Cloudy BKN110 80 64     58%   82 30 29.84      
Sep 20 22:53 S 17 10 Mostly Cloudy BKN100 81 64     56%   83 29.99 29.84      
Sep 20 21:53 SE 13 10 Mostly Clear FEW120 82 65     56%   84 29.98 29.83 0 0  
Sep 20 20:53 SSE 15 10 Clear CLR 83 65     55%   85 29.95 29.8 0    
Sep 20 19:53 SSE 15 10 Light Rain FEW050 SCT070 BKN110 82 66     58%   84 29.91 29.77 0    
Sep 20 19:23 S 11 7 Clear   83 67     59%   86 29.92   0    
Sep 20 18:53 S 20 10 Clear and Windy   86 64     48%   87 29.9 29.75      
Sep 20 18:45 S 17 10 Clear   86 64     48%   87 29.9        
Sep 20 17:53 SSE 20 10 Mostly Cloudy and Windy SCT065 BKN090 90 62     40%   90 29.88 29.73      
Sep 20 16:53 S 17 10 Clear   92 61     36%   92 29.88 29.73      
Sep 20 15:53 SSW 11 10 Clear CLR 91 61     37%   91 29.89 29.74      
Sep 20 14:53 S 15 10 Clear CLR 91 61     37%   91 29.92 29.76      
Sep 20 13:53 S 13 10 Partly Cloudy SCT049 89 63     42%   90 29.96 29.81      
Sep 20 12:53 S 17 10 Clear CLR 87 66     50%   89 29.97 29.83      
Sep 20 11:53 SSW 22 9 Clear and Windy CLR 85 66     53%   87 29.99 29.84      
Sep 20 10:53 S 20 9 Clear and Windy CLR 83 67     59%   86 29.99 29.84      
Sep 20 09:53 S 17 8 Clear CLR 78 66     67%   79 29.98 29.84      
Sep 20 08:53 SSE 11 9 Clear CLR 74 64     71%   74 29.97 29.84      
Sep 20 07:53 ESE 8 10 Clear CLR 71 62     73%   71 29.96 29.83      
Sep 20 06:53 ESE 8 10 Clear CLR 71 62     73%   71 29.94 29.8      
Sep 20 05:53 E 7 10 Clear CLR 71 62     73%   71 29.93 29.8      
Sep 20 04:53 E 9 10 Clear CLR 71 62     73%   71 29.92 29.78      
Sep 20 03:53 E 8 10 Clear CLR 72 62     71%   72 29.91 29.77      
Sep 20 02:53 E 8 10 Clear CLR 73 63     71%   73 29.92 29.77      
Sep 20 01:53 ENE 9 10 Mostly Clear FEW095 72 65     79%   73 29.93 29.77      
Sep 20 00:53 NE 8 10 Clear CLR 73 66     79%   74 29.93 29.77      
Sep 19 23:53 ENE 6 10 Clear CLR 73 67     81%   74 29.92 29.77      
May 15 01:53 SSE 13 9 Mostly Clear FEW014 71 66     84%   72 29.98 29.83      
May 14 19:49 SSW 18 10 Clear   88 39     18%   84 29.87        
May 14 12:53 Calm 10 Mostly Clear FEW120 82 50     33%   81 29.99 29.85      
May 13 17:53 SSE 11 10 Clear CLR 94 44     18%   90 29.89 29.73      
May 12 18:53 S 13 10 Clear CLR 96 33     11%   91 29.85 29.69      
May 12 16:53 S 13 10 Clear CLR 96 31     10%   90 29.87 29.71      
May 12 00:53 S 20 10 Clear and Windy CLR 78 54     43%   78 29.86 29.69      
May 11 20:53 S 21 10 Clear and Windy CLR 85 54     35%   83 29.8 29.65      
May 11 07:53 S 20 10 Clear and Windy CLR 70 54     57%     29.88 29.73      
Jun 11 22:53 S 17 10 Clear CLR 83 66     57%   85 29.89 29.74      
Jun 11 01:53 S 17 10 Clear CLR 80 61     52%   81 29.86 29.69      
Jun 10 20:53 S 20 10 Clear and Windy CLR 90 58     34%   89 29.79 29.64      
Jun 10 04:53 S 15 10 Clear CLR 77 57     50%   77 29.82 29.65      
Jun 09 16:53 ESE 6 10 Clear CLR 97 50     21%   94 29.82 29.66      
Jun 09 03:53 NNE 6 10 Mostly Clear FEW090 73 54     51%   72 29.99 29.85      
Jun 08 18:53 SSW 13 10 Clear   88 52     29%   86 29.91 29.76      
Jun 08 12:53 S 6 10 Mostly Cloudy BKN110 83 56     40%   82 30.03 29.88      
Jun 08 03:53 S 3 10 Clear CLR 73 55     53%   73 30.05 29.9      
Jun 07 23:53 ESE 13 10 Clear CLR 80 55     42%   80 30.06 29.91      
Jun 07 14:53 Calm 10 Clear CLR 88 50     27%   85 30.08 29.94      
Jun 07 10:53 SSW 13 10 Clear CLR 81 54     39%   81 30.13 29.98      
Jun 06 10:53 ENE 8 10 Mostly Clear FEW033 80 62     54%   81 30.09 29.95      
Jun 05 20:53 ENE 7 10 Clear CLR 81 57     44%   81 29.91 29.77